Location: Waco, TX
(31.5480°N, 97.1670°W)
Time: 23:12:09
(UTC-06:00)

ISS - Pass Details

Date: 12 February 2019
Orbit: 403 x 411 km, 51.6° (Epoch: 22 February)

Event Time Altitude Azimuth Distance (km) Brightness Sun altitude
Rises 10:12:16 0° 225° (SW) 2,301 0.0 32.2°
Reaches altitude 10° 10:14:20 10° 225° (SW) 1,446 -0.9 32.5°
Maximum altitude 10:17:35 87° 312° (NW) 406 -3.3 32.9°
Drops below altitude 10° 10:20:51 10° 44° (NE) 1,456 -1.0 33.4°
Sets 10:22:56 0° 45° (NE) 2,319 0.0 33.7°
